Date,TemperatureHighF,TemperatureAvgF,TemperatureLowF,DewpointHighF,DewpointAvgF,DewpointLowF,HumidityHigh,HumidityAvg,HumidityLow,PressureMaxIn,PressureMinIn,WindSpeedMaxMPH,WindSpeedAvgMPH,GustSpeedMaxMPH,PrecipitationSumIn
2013-1-1,28.7,20.0,4.0,24.0,13.1,0.0,94,72,48,29.77,29.56,22,4,23,0.00
2013-1-2,13.6,5.2,-1.1,4.0,-2.3,-6.0,82,65,49,29.95,29.76,24,4,25,0.00
2013-1-3,18.1,7.0,-2.5,4.0,-0.5,-6.0,76,65,51,30.02,29.90,17,4,17,0.00
2013-1-4,28.6,19.7,5.9,26.0,15.7,0.0,88,81,70,29.90,29.68,9,1,9,0.00
2013-1-5,30.6,23.0,10.7,26.0,14.1,4.0,92,67,41,30.25,29.68,25,4,25,0.00
2013-1-6,28.1,18.6,9.3,26.0,16.1,4.0,97,87,69,30.23,29.90,10,2,10,0.01
2013-1-7,19.6,13.3,9.4,21.0,9.5,4.0,97,81,65,30.39,29.95,15,3,19,0.00
2013-1-8,39.6,30.3,13.2,29.0,23.9,8.0,95,76,54,30.33,30.16,9,2,20,0.07
2013-1-9,37.2,33.2,26.2,37.0,28.5,23.0,99,83,63,30.40,29.83,12,3,12,0.01
2013-1-10,40.2,34.2,26.1,32.0,26.0,18.0,97,71,52,30.49,29.82,32,6,32,0.01
2013-1-11,35.7,28.5,21.3,24.0,18.5,16.0,79,65,46,30.51,30.27,22,2,22,0.00
2013-1-12,38.5,35.0,29.2,38.0,30.9,21.0,100,84,70,30.28,30.11,11,2,12,0.00
2013-1-13,45.1,40.5,37.8,45.0,40.5,38.0,100,100,100,30.16,29.96,14,3,14,0.00
2013-1-14,51.4,43.1,34.1,51.0,40.3,24.0,100,90,66,30.19,29.85,17,4,17,0.02
2013-1-15,34.2,29.7,23.6,26.0,21.9,18.0,82,70,56,30.31,30.17,13,2,15,0.00
2013-1-16,32.6,28.0,24.4,33.0,25.8,18.0,100,90,70,30.27,29.75,10,3,10,0.00
2013-1-17,38.0,26.4,7.6,35.0,20.4,-6.0,100,78,42,30.12,29.73,25,3,25,0.16
2013-1-18,10.9,5.7,-1.1,0.0,-4.9,-13.0,70,55,39,30.36,30.09,19,3,20,0.00
2013-1-19,33.9,24.4,7.5,28.0,20.3,0.0,97,82,59,30.34,29.92,17,1,17,0.00
2013-1-20,45.7,35.4,19.4,40.0,28.5,4.0,100,76,46,29.92,29.42,27,4,28,0.20
2013-1-21,20.5,14.5,8.9,11.0,1.5,-6.0,87,50,34,30.00,29.77,23,3,24,0.00
2013-1-22,13.1,7.2,2.4,11.0,-1.7,-6.0,87,62,51,29.93,29.76,20,3,20,0.00
2013-1-23,4.0,-1.2,-7.4,-6.0,-12.1,-13.0,58,49,35,30.00,29.92,20,4,20,0.00
2013-1-24,7.3,-0.7,-7.9,-6.0,-12.0,-13.0,64,53,37,30.01,29.81,27,5,27,0.00
2013-1-25,17.3,7.5,-2.4,4.0,-2.4,-6.0,70,57,42,30.10,30.00,24,4,24,0.00
2013-1-26,14.9,8.6,2.4,0.0,-2.9,-6.0,68,55,38,30.05,29.92,20,4,20,0.00
2013-1-27,20.1,11.6,4.1,8.0,2.1,-6.0,70,58,49,30.34,30.02,24,6,24,0.00
2013-1-28,25.0,17.0,7.7,16.0,2.6,-6.0,86,51,25,30.36,30.06,15,2,16,0.00
2013-1-29,34.8,26.2,17.2,23.0,17.1,11.0,88,67,49,30.23,30.05,9,2,9,0.00
2013-1-30,51.8,41.9,29.3,52.0,41.4,23.0,100,98,75,30.18,29.49,27,7,28,0.21
2013-1-31,54.2,44.4,29.2,54.0,41.8,16.0,100,90,57,29.50,28.86,46,8,46,0.22
2013-2-1,29.1,21.0,9.3,16.0,7.7,0.0,68,52,42,29.98,29.37,21,4,21,0.00
2013-2-2,24.2,15.1,5.4,16.0,5.4,0.0,83,61,39,30.17,29.97,16,2,16,0.00
2013-2-3,28.5,20.8,16.4,23.0,17.9,16.0,96,86,70,30.06,29.65,18,3,20,0.03
2013-2-4,25.8,17.9,10.1,16.0,8.5,-6.0,88,63,38,29.79,29.54,26,5,26,0.00
2013-2-5,21.0,11.2,3.1,0.0,-4.8,-6.0,62,45,31,30.02,29.79,18,2,18,0.00
2013-2-6,33.9,19.1,7.9,26.0,9.7,-6.0,91,63,41,30.22,29.91,18,3,18,0.01
2013-2-7,12.3,5.6,0.5,0.0,-9.4,-13.0,58,45,29,30.59,30.21,20,4,20,0.00
2013-2-8,17.2,7.9,0.0,14.0,3.1,-13.0,92,74,52,30.59,29.90,24,3,24,0.00
2013-2-9,14.0,10.7,7.2,11.0,9.9,8.0,93,92,88,30.01,29.63,35,8,38,0.00
2013-2-10,30.4,20.0,9.9,11.0,7.4,4.0,91,57,37,30.34,30.01,20,5,21,0.00
2013-2-11,38.7,28.0,18.1,39.0,21.1,0.0,100,75,40,30.32,29.57,20,3,20,0.19
2013-2-12,39.0,34.9,32.0,36.0,32.6,29.0,100,91,78,29.73,29.49,12,2,12,0.05
2013-2-13,41.4,34.0,29.4,29.0,25.5,23.0,86,71,52,29.79,29.70,14,2,14,0.00
2013-2-14,37.5,31.1,25.9,24.0,19.5,16.0,82,62,43,30.01,29.72,35,3,35,0.00
2013-2-15,41.8,34.6,24.5,37.0,29.9,16.0,100,82,60,30.02,29.94,34,5,34,0.00
2013-2-16,35.9,30.3,23.6,36.0,30.1,24.0,100,98,88,29.95,29.75,29,5,29,0.00
2013-2-17,23.5,19.1,16.2,24.0,18.5,11.0,98,93,75,29.75,29.00,34,10,35,0.03
2013-2-18,26.4,18.8,12.1,11.0,5.8,4.0,75,54,42,29.89,29.23,39,8,39,0.00
2013-2-19,45.3,29.1,15.4,39.0,14.6,4.0,100,55,22,30.07,29.73,18,4,18,0.05
2013-2-20,41.8,35.1,26.4,42.0,30.1,18.0,100,81,62,29.73,29.39,26,5,29,0.78
2013-2-21,32.2,25.8,20.2,29.0,19.7,11.0,93,76,63,30.08,29.57,23,5,24,0.00
2013-2-22,37.6,29.0,22.0,26.0,21.1,18.0,87,71,47,30.36,30.08,18,2,18,0.00
2013-2-23,30.2,26.3,20.6,26.0,23.5,18.0,96,89,81,30.35,30.07,13,3,13,0.00
2013-2-24,29.1,26.5,23.9,29.0,26.6,23.0,100,98,93,30.08,29.80,18,2,18,0.01
2013-2-25,38.4,27.6,18.4,23.0,13.7,0.0,96,59,28,30.23,29.87,14,2,16,0.13
2013-2-26,43.2,33.8,28.1,26.0,21.3,4.0,84,60,30,30.37,30.23,13,2,13,0.01
2013-2-27,39.3,31.3,26.2,31.0,26.6,23.0,100,82,59,30.29,29.77,26,5,26,0.01
2013-2-28,37.3,33.5,29.6,37.0,33.8,31.0,100,100,100,29.77,29.53,23,6,24,0.28
2013-3-1,31.5,29.8,28.3,32.0,30.2,28.0,100,100,100,29.63,29.52,21,4,21,0.06
2013-3-2,35.2,31.5,28.6,35.0,31.8,29.0,100,100,97,29.62,29.57,16,4,18,0.17
2013-3-3,41.3,34.9,32.0,39.0,34.1,32.0,100,96,83,29.60,29.48,11,3,11,0.02
2013-3-4,34.1,31.5,29.3,35.0,31.4,29.0,100,99,95,29.66,29.43,17,4,17,0.08
2013-3-5,42.1,34.5,31.9,38.0,33.8,32.0,100,97,81,30.15,29.66,15,3,17,0.18
2013-3-6,37.9,32.5,29.6,33.0,27.6,24.0,100,83,67,30.29,30.15,21,5,21,0.01
2013-3-7,36.5,31.5,29.2,26.0,24.5,23.0,85,75,61,30.26,30.09,23,3,24,0.00
2013-3-8,44.3,33.8,27.9,26.0,23.4,21.0,84,66,41,30.21,30.06,39,6,39,0.00
2013-3-9,41.7,31.4,25.2,26.0,23.7,23.0,90,73,48,30.39,30.18,20,4,21,0.00
2013-3-10,38.5,29.9,25.0,29.0,25.1,23.0,94,82,59,30.43,30.30,12,3,15,0.00
2013-3-11,42.7,36.2,30.1,37.0,34.1,29.0,100,91,75,30.33,30.19,25,5,29,0.00
2013-3-12,48.4,42.9,37.4,46.0,42.0,37.0,100,97,85,30.20,29.86,26,6,26,0.43
2013-3-13,47.6,41.4,32.5,47.5,41.0,29.0,100,98,82,29.86,29.65,28,5,28,0.58
2013-3-14,44.5,33.2,21.6,29.0,25.3,16.0,96,73,46,29.70,29.61,25,3,25,0.00
2013-3-15,34.0,23.4,15.7,18.0,12.2,8.0,87,60,36,29.73,29.60,24,4,28,0.01
2013-3-16,33.1,26.1,18.6,18.0,13.7,8.0,89,58,36,29.88,29.61,30,4,30,0.00
2013-3-17,29.1,20.7,13.7,11.0,5.2,-6.0,73,48,27,30.26,29.87,30,4,30,0.00
2013-3-18,32.8,20.7,10.3,8.0,0.6,-6.0,49,39,25,30.39,30.25,24,3,24,0.00
2013-3-19,25.3,22.8,21.0,23.0,16.4,4.0,99,77,37,30.30,29.65,22,4,24,0.00
2013-3-20,32.2,23.5,15.7,29.0,21.8,16.0,99,90,79,29.69,29.54,31,4,31,0.13
2013-3-21,38.5,29.1,18.5,26.0,21.5,16.0,95,74,39,29.77,29.60,20,2,20,0.17
2013-3-22,40.2,29.3,21.1,26.0,18.8,16.0,91,65,39,29.60,29.55,28,4,28,0.03
2013-3-23,39.4,30.1,21.1,26.0,20.4,14.0,81,67,45,29.58,29.41,37,4,44,0.00
2013-3-24,42.6,35.4,30.0,28.0,24.9,23.0,85,66,47,29.77,29.56,19,5,19,0.00
2013-3-25,44.1,35.6,26.9,32.0,27.8,24.0,99,74,49,29.77,29.61,17,3,17,0.00
2013-3-26,46.2,35.7,26.5,31.0,25.7,23.0,85,67,42,29.69,29.52,19,4,24,0.00
2013-3-27,38.5,34.6,32.2,39.0,33.6,28.0,100,95,83,29.85,29.67,24,5,24,0.22
2013-3-28,49.2,39.5,31.7,36.0,32.0,26.0,97,76,50,29.95,29.85,13,3,13,0.00
2013-3-29,52.0,43.2,36.8,37.0,33.4,29.0,91,68,44,29.99,29.93,23,4,23,0.00
2013-3-30,51.4,42.0,33.1,32.0,23.5,11.0,87,51,25,30.08,29.98,15,4,15,0.00
2013-3-31,52.6,41.1,32.5,36.0,19.8,14.0,97,45,22,30.13,29.92,17,4,17,0.00
2013-4-1,43.9,38.8,30.9,42.0,37.9,28.0,100,96,84,29.92,29.51,26,5,26,0.51
2013-4-2,36.5,29.5,23.8,29.0,16.7,11.0,92,58,37,29.77,29.63,23,3,23,0.00
2013-4-3,38.2,30.1,23.8,21.0,15.9,11.0,79,54,40,29.96,29.74,28,4,29,0.00
2013-4-4,51.1,36.0,26.9,32.0,16.6,8.0,88,47,20,30.15,29.95,21,5,21,0.00
2013-4-5,50.1,40.8,33.6,35.0,30.5,23.0,89,68,42,29.97,29.67,20,5,21,0.00
2013-4-6,36.9,30.2,24.9,23.0,11.0,4.0,71,44,23,30.33,29.76,26,6,27,0.00
2013-4-7,42.3,33.0,23.6,37.0,21.6,8.0,92,62,42,30.34,29.98,24,5,24,0.00
2013-4-8,56.7,45.8,36.6,40.0,35.9,31.0,100,71,44,30.17,29.91,23,4,23,0.00
2013-4-9,40.4,38.2,34.8,40.0,36.6,32.0,100,94,71,30.18,29.94,20,3,20,0.40
2013-4-10,52.9,43.2,37.3,47.5,41.1,37.0,100,93,64,30.00,29.91,13,2,13,0.04
2013-4-11,46.7,39.9,31.2,42.0,22.6,14.0,100,52,28,30.19,29.89,20,4,20,0.00
2013-4-12,37.4,31.8,27.5,31.0,22.6,14.0,100,70,45,30.27,29.95,29,5,29,0.07
2013-4-13,39.9,34.6,31.0,38.0,34.2,31.0,100,98,92,29.95,29.79,17,2,17,0.34
2013-4-14,46.7,39.0,35.0,43.0,38.0,35.0,100,96,79,30.16,29.92,32,2,61,0.05
2013-4-15,51.0,39.1,32.9,39.0,36.3,33.0,100,90,61,30.44,30.17,24,4,26,0.01
2013-4-16,49.9,42.2,36.1,45.0,39.2,36.0,100,90,61,30.44,29.95,29,6,34,0.06
2013-4-17,57.2,47.9,38.6,47.0,32.5,23.0,100,58,30,30.38,29.95,21,5,22,0.01
2013-4-18,47.7,39.7,31.5,36.0,24.8,16.0,84,55,31,30.50,30.19,18,2,19,0.00
2013-4-19,57.7,50.9,42.0,57.5,49.2,33.0,100,94,65,30.19,29.73,23,6,28,0.00
2013-4-20,56.3,50.3,40.0,56.5,45.8,28.0,100,86,50,30.14,29.63,30,4,30,0.37
2013-4-21,48.3,39.4,32.5,29.0,21.1,14.0,72,49,24,30.70,30.14,21,3,21,0.00
2013-4-22,47.7,38.4,29.5,32.0,22.9,16.0,94,55,33,30.83,30.70,17,3,17,0.00
2013-4-23,42.7,36.5,29.4,40.0,35.0,29.0,100,93,73,30.70,30.25,15,3,15,0.04
2013-4-24,54.7,45.8,40.1,54.5,45.9,40.0,100,100,99,30.25,29.80,16,3,19,0.50
2013-4-25,61.4,49.8,41.1,50.0,40.2,29.0,100,74,34,30.31,29.84,19,3,21,0.05
2013-4-26,61.4,47.2,36.6,37.0,31.0,28.0,90,55,29,30.46,30.30,11,3,13,0.00
2013-4-27,63.8,47.4,33.6,36.0,31.3,24.0,97,58,24,30.46,30.32,14,3,21,0.00
2013-4-28,63.4,52.7,43.9,39.0,35.4,31.0,76,53,34,30.38,30.29,13,4,14,0.00
2013-4-29,64.3,52.0,41.3,42.0,35.4,28.0,94,57,26,30.34,30.26,27,3,27,0.00
2013-4-30,66.7,53.5,40.7,42.0,34.8,26.0,97,55,22,30.40,30.29,18,3,18,0.00
2013-5-1,69.1,54.8,41.5,39.0,32.3,23.0,88,47,20,30.50,30.40,15,3,15,0.00
2013-5-2,66.4,51.5,41.7,45.0,36.0,24.0,81,58,22,30.56,30.45,17,3,17,0.00
2013-5-3,69.2,51.1,37.2,43.0,39.1,35.0,92,67,33,30.58,30.41,20,3,20,0.00
2013-5-4,63.7,47.2,36.4,38.0,35.6,32.0,94,67,30,30.44,30.35,19,4,19,0.00
2013-5-5,65.4,49.0,36.3,39.0,37.0,35.0,95,67,35,30.36,30.28,14,3,15,0.00
2013-5-6,65.5,49.0,38.3,45.0,41.2,37.0,100,78,35,30.31,30.21,20,4,20,0.00
2013-5-7,72.7,54.4,40.5,53.0,46.8,41.0,100,80,35,30.22,30.14,23,4,24,0.00
2013-5-8,71.6,58.0,45.9,58.0,53.4,46.0,100,87,56,30.31,30.21,20,4,20,0.00
2013-5-9,57.1,52.6,49.6,57.0,52.6,50.0,100,100,100,30.22,29.98,16,3,19,0.61
2013-5-10,71.0,56.3,46.9,61.5,53.4,47.0,100,91,62,30.03,29.94,16,2,28,0.00
2013-5-11,55.8,51.1,46.2,56.0,51.2,46.0,100,100,100,30.01,29.77,19,1,22,0.24
2013-5-12,56.1,52.5,44.7,56.0,52.6,45.0,100,100,100,29.77,29.58,14,2,14,0.27
2013-5-13,56.2,47.2,38.1,45.0,38.4,33.0,100,74,47,30.02,29.73,20,2,20,0.01
2013-5-14,56.4,46.9,40.3,39.0,32.7,29.0,86,59,37,30.03,29.95,13,3,13,0.00
2013-5-15,62.9,49.7,36.8,47.0,33.9,24.0,100,59,26,30.03,29.74,20,3,21,0.24
2013-5-16,72.6,56.3,45.8,57.0,48.7,41.0,100,79,45,29.81,29.61,20,2,20,0.02
2013-5-17,58.6,50.3,44.8,44.0,39.7,37.0,89,68,47,30.23,29.80,17,1,18,0.00
2013-5-18,61.1,48.6,39.7,42.0,38.5,36.0,97,70,40,30.39,30.22,14,2,14,0.00
2013-5-19,60.3,48.6,38.1,47.5,42.2,38.0,100,81,52,30.43,30.30,14,2,14,0.00
2013-5-20,57.4,51.0,47.2,56.0,50.9,47.0,100,99,94,30.30,29.99,17,3,17,0.81
2013-5-21,50.2,47.7,46.3,50.0,47.8,46.0,100,100,100,30.13,30.03,12,2,13,0.08
2013-5-22,49.9,47.7,46.0,50.0,47.8,46.0,100,100,100,30.10,29.98,1,0,1,0.42
2013-5-23,59.9,53.2,45.1,60.0,53.2,45.0,100,100,98,30.01,29.88,18,2,18,0.01
2013-5-24,60.8,56.3,47.4,61.0,56.3,47.5,100,100,100,29.90,29.73,25,3,25,1.35
2013-5-25,50.0,48.0,46.4,50.0,48.1,46.0,100,100,100,29.87,29.75,19,3,20,0.50
2013-5-26,49.9,46.4,41.5,50.0,46.4,42.0,100,99,96,29.94,29.68,17,3,17,0.47
2013-5-27,63.4,50.1,38.4,45.0,40.1,33.0,100,72,34,30.20,29.93,19,2,19,0.00
2013-5-28,73.3,57.8,42.5,46.0,38.3,33.0,85,52,27,30.28,30.20,13,2,13,0.00
2013-5-29,52.4,49.8,45.3,52.0,48.5,37.0,100,96,61,30.28,30.04,15,3,16,0.39
2013-5-30,82.0,65.5,49.7,67.0,58.4,50.0,100,81,49,30.08,30.00,11,1,11,0.00
2013-5-31,89.7,76.0,62.4,67.5,62.8,57.0,86,66,43,30.08,29.92,6,0,6,0.00
2013-6-1,90.7,76.5,62.5,68.5,63.5,59.0,88,66,43,29.98,29.87,17,2,18,0.00
2013-6-2,83.5,69.7,60.6,68.5,62.2,59.0,98,78,59,29.87,29.77,21,3,21,0.04
2013-6-3,71.6,62.3,56.7,66.7,60.4,56.5,100,94,71,29.88,29.76,14,2,16,0.01
2013-6-4,64.1,58.2,50.0,59.5,45.2,39.0,99,64,43,30.04,29.81,16,2,17,0.00
2013-6-5,72.8,58.2,46.8,48.0,42.0,37.0,84,58,32,30.19,30.04,14,2,14,0.00
2013-6-6,72.0,59.1,50.7,52.0,43.6,39.0,98,60,33,30.26,30.19,10,2,11,0.00
2013-6-7,63.2,54.7,50.8,53.0,48.1,37.0,100,82,43,30.22,30.05,9,2,9,0.00
2013-6-8,59.7,54.8,51.0,59.0,54.0,51.0,100,98,88,30.05,29.69,9,3,9,0.00
2013-6-9,67.4,57.7,49.5,60.0,54.0,50.0,100,89,71,30.18,30.01,9,2,9,0.00
2013-6-10,75.3,60.7,51.0,56.0,52.5,49.0,100,78,44,30.26,30.10,9,2,9,0.00
2013-6-11,53.6,52.5,50.8,53.0,52.3,50.0,100,99,94,30.11,29.59,9,3,9,0.01
2013-6-12,56.9,53.2,50.3,57.0,53.0,50.0,100,100,100,29.76,29.52,9,1,9,0.11
2013-6-13,71.7,58.6,49.6,56.0,51.9,50.0,100,81,49,29.85,29.75,9,1,9,0.20
2013-6-14,66.0,57.4,48.2,56.0,51.6,47.0,98,83,64,29.80,29.71,9,1,9,0.02
2013-6-15,75.6,61.5,46.2,52.0,45.5,41.0,100,60,32,29.92,29.75,9,3,9,0.00
2013-6-16,77.1,62.5,52.1,54.0,50.0,45.0,98,67,37,29.94,29.78,9,2,9,0.02
2013-6-17,81.6,63.8,52.0,62.0,57.5,52.0,100,84,45,29.90,29.76,9,2,9,0.03
2013-6-18,72.3,61.9,53.9,57.0,51.4,47.0,100,72,46,30.00,29.88,9,2,9,0.00
2013-6-19,73.5,63.3,51.1,51.0,44.5,38.0,82,54,29,30.17,29.96,9,3,9,0.00
2013-6-20,79.0,65.4,54.8,53.0,47.0,40.0,92,54,32,30.29,30.17,9,2,9,0.00
2013-6-21,84.1,66.7,53.2,60.0,54.6,52.0,100,70,35,30.27,30.19,7,1,9,0.00
2013-6-22,77.2,68.2,59.3,64.0,57.7,47.0,96,71,51,30.25,30.15,8,1,8,0.00
2013-6-23,75.8,64.7,56.6,68.0,61.7,56.0,100,92,71,30.19,30.01,9,2,9,0.08
2013-6-24,88.3,75.0,62.2,73.0,68.0,62.0,100,81,55,30.01,29.85,9,1,9,0.04
2013-6-25,92.5,77.0,66.3,71.0,66.1,60.0,100,72,48,29.89,29.76,8,2,9,0.10
2013-6-26,71.9,64.4,58.3,70.0,63.9,58.0,100,99,93,29.94,29.32,9,1,9,0.01
2013-6-27,61.6,56.2,52.5,59.0,55.6,53.0,100,98,90,29.96,29.90,9,2,9,0.01
2013-6-28,60.8,57.5,54.5,60.0,57.2,54.0,100,100,100,29.94,29.67,9,4,9,1.77
2013-6-29,67.0,62.0,58.7,67.0,61.7,59.0,100,100,100,29.78,29.65,9,2,9,0.08
2013-6-30,73.4,66.0,61.1,72.0,65.0,61.0,100,98,88,30.00,29.77,9,2,9,0.00
2013-7-1,79.3,68.8,61.2,72.0,66.9,61.0,100,95,78,30.17,29.98,7,1,7,0.03
2013-7-2,67.0,59.1,55.7,67.0,58.8,56.0,100,100,96,30.28,30.16,9,2,9,0.29
2013-7-3,84.5,67.4,55.5,71.0,62.7,56.0,100,87,63,30.24,30.15,8,1,9,0.00
2013-7-4,92.0,77.3,63.5,72.0,68.7,63.0,100,78,49,30.20,30.09,9,1,9,0.00
2013-7-5,93.2,79.3,68.6,73.0,70.5,68.0,100,78,49,30.14,30.04,6,0,6,0.01
2013-7-6,88.7,78.7,68.9,74.0,69.8,62.0,100,76,56,30.06,29.95,9,0,9,0.00
2013-7-7,91.3,78.7,65.4,69.0,65.5,61.0,89,67,44,29.99,29.92,9,1,9,0.00
2013-7-8,79.1,68.8,55.8,67.0,61.7,47.0,98,80,52,30.14,29.95,9,1,9,0.19
2013-7-9,69.5,63.7,60.4,65.0,60.7,53.0,100,91,74,30.19,30.13,9,2,9,0.02
2013-7-10,68.5,62.2,59.1,64.0,61.0,59.0,100,97,86,30.16,29.85,9,2,9,0.01
2013-7-11,76.3,68.6,63.0,73.0,67.1,61.0,100,96,79,30.02,29.80,8,1,9,0.08
2013-7-12,83.2,69.7,59.4,61.0,57.3,54.0,90,68,38,30.27,30.01,9,2,9,0.00
2013-7-13,87.3,73.1,60.5,61.0,56.8,53.0,87,59,39,30.36,30.26,9,2,9,0.00
2013-7-14,93.0,75.2,59.5,69.0,63.4,56.0,96,70,43,30.33,30.22,9,1,9,0.00
2013-7-15,93.5,81.0,69.2,70.0,65.4,61.0,91,62,37,30.23,30.09,8,0,8,0.00
2013-7-16,93.3,79.6,67.1,68.0,63.8,56.0,77,60,36,30.24,29.66,9,0,9,0.00
2013-7-17,84.3,72.7,63.8,69.0,62.5,55.0,99,72,59,30.25,29.96,9,2,9,0.11
2013-7-18,89.3,74.9,63.8,69.0,64.3,55.0,100,74,44,30.06,29.96,9,2,9,0.12
2013-7-19,87.4,74.2,64.9,76.0,69.1,64.0,100,87,65,30.01,29.68,9,2,9,0.10
2013-7-20,90.9,76.9,64.5,72.0,68.1,61.0,99,77,51,29.83,29.64,9,0,9,0.18
2013-7-21,79.0,67.8,59.1,61.0,55.5,50.0,90,67,48,30.09,29.83,9,0,9,0.00
2013-7-22,75.1,65.0,56.5,62.0,56.3,52.0,97,76,56,30.11,30.01,9,1,9,0.00
2013-7-23,67.4,62.8,57.6,67.0,62.3,56.0,100,100,92,30.02,29.59,9,2,9,1.33
2013-7-24,80.7,68.6,57.2,72.0,64.7,51.0,100,89,74,30.02,29.61,9,1,9,0.05
2013-7-25,76.3,63.0,52.3,61.0,54.3,48.0,98,76,47,30.19,30.01,9,1,9,0.02
2013-7-26,66.7,63.2,60.4,66.0,62.8,60.0,100,100,97,30.15,29.90,9,1,9,1.78
2013-7-27,84.8,68.7,58.8,68.0,62.9,59.0,100,85,55,30.11,29.89,9,1,9,0.02
2013-7-28,72.9,64.3,57.5,67.0,62.4,57.0,100,95,79,30.13,30.07,4,0,4,0.01
2013-7-29,73.2,65.9,61.5,67.0,63.7,61.0,100,94,82,30.13,30.04,5,0,5,0.01
2013-7-30,80.0,68.0,61.9,66.0,61.7,56.0,100,83,50,30.12,30.04,9,0,9,0.01
2013-7-31,82.6,68.5,58.6,61.0,56.8,54.0,91,69,44,30.15,29.57,2,0,1,0.00
2013-8-1,78.1,66.8,57.2,66.0,59.8,56.0,100,81,52,30.11,29.97,13,0,13,0.00
2013-8-2,66.2,62.6,59.9,66.0,62.2,59.0,100,100,100,29.97,29.83,9,1,11,0.39
2013-8-3,76.7,63.4,56.9,68.0,61.0,57.0,100,94,64,29.88,29.76,15,1,16,0.30
2013-8-4,80.5,66.0,55.8,65.0,58.5,54.0,100,80,45,29.84,29.76,9,1,11,0.00
2013-8-5,69.1,60.7,54.3,54.0,52.4,47.0,93,75,57,30.05,29.83,16,3,17,0.00
2013-8-6,80.6,64.6,50.4,57.0,52.0,47.0,88,66,44,30.21,30.04,10,1,11,0.00
2013-8-7,76.7,65.1,56.0,57.0,52.4,48.0,100,67,43,30.26,30.19,5,0,5,0.00
2013-8-8,62.6,60.0,56.7,62.0,59.7,56.0,100,100,100,30.21,30.10,13,2,13,0.12
2013-8-9,68.3,64.6,61.9,68.0,64.2,62.0,100,100,100,30.11,29.75,18,3,18,2.10
2013-8-10,80.0,68.4,56.5,73.0,59.5,48.0,100,77,43,30.01,29.34,14,1,15,0.00
2013-8-11,79.3,64.4,52.1,56.0,53.5,49.0,94,71,44,30.07,29.98,12,1,12,0.00
2013-8-12,83.5,68.4,57.2,60.0,56.6,54.0,95,70,42,30.05,29.94,9,1,9,0.00
2013-8-13,73.3,64.8,56.8,66.0,61.6,56.0,100,91,74,29.97,29.77,11,2,11,0.00
2013-8-14,72.9,63.1,56.0,68.0,60.7,50.0,100,93,74,29.87,29.65,18,2,18,0.21
2013-8-15,79.5,63.1,49.1,57.0,53.0,48.0,99,73,44,30.13,29.86,12,1,12,0.00
2013-8-16,76.6,65.0,54.7,60.0,55.3,52.0,99,75,45,30.24,30.11,12,1,12,0.00
2013-8-17,77.2,64.9,55.1,59.0,55.1,53.0,99,74,46,30.31,30.23,10,0,11,0.00
2013-8-18,78.8,65.7,55.3,60.0,56.6,53.0,97,76,44,30.31,30.09,9,0,9,0.00
2013-8-19,85.8,70.6,58.4,66.0,61.7,57.0,100,77,50,30.09,29.90,12,1,16,0.00
2013-8-20,88.0,73.4,63.6,67.0,62.6,59.0,88,71,48,30.12,29.98,8,0,8,0.00
2013-8-21,87.5,74.6,64.4,69.0,63.0,59.0,88,69,50,30.17,30.04,11,0,11,0.00
2013-8-22,86.5,73.5,62.4,68.0,64.4,61.0,99,76,49,30.05,29.80,10,0,10,0.00
2013-8-23,74.5,66.0,56.4,66.0,56.9,49.0,100,75,46,30.18,29.80,15,1,16,0.00
2013-8-24,76.5,63.6,51.9,50.0,47.1,43.0,85,59,33,30.35,30.18,10,0,10,0.00
2013-8-25,81.9,67.0,57.5,55.0,51.2,47.0,85,59,34,30.39,30.20,8,0,8,0.00
2013-8-26,75.8,64.1,57.4,66.0,60.8,53.0,100,90,70,30.21,29.92,8,0,8,0.03
2013-8-27,85.4,71.4,61.3,69.0,64.4,61.0,100,82,52,29.97,29.90,8,1,8,0.00
2013-8-28,82.0,68.2,62.1,67.0,63.6,61.0,100,88,53,30.06,29.94,10,1,10,0.10
2013-8-29,65.3,59.4,52.2,63.0,57.3,52.0,100,94,78,30.17,30.06,15,2,15,0.07
2013-8-30,75.7,62.3,50.0,63.0,57.6,50.0,100,86,65,30.06,29.83,9,2,9,0.02
2013-8-31,81.1,67.8,62.5,69.0,64.9,62.0,100,92,64,29.91,29.82,12,2,12,0.46
2013-9-1,82.6,69.7,63.0,72.0,66.7,63.0,100,92,65,30.02,29.82,9,1,9,0.20
2013-9-2,65.1,62.1,60.0,65.0,61.7,60.0,100,100,100,30.03,29.81,18,4,18,2.29
2013-9-3,74.9,67.2,63.2,71.0,66.3,63.0,100,98,86,29.84,29.76,12,1,12,0.49
2013-9-4,80.5,68.4,61.0,65.0,60.6,55.0,100,79,49,29.94,29.77,14,1,14,0.00
2013-9-5,63.8,56.4,48.7,57.0,48.7,39.0,100,78,44,30.16,29.91,11,1,11,0.59
2013-9-6,68.8,55.3,44.0,50.0,43.0,38.0,96,67,40,30.24,30.08,10,1,10,0.00
2013-9-7,75.2,60.8,49.9,58.0,53.3,50.0,100,80,47,30.08,29.83,15,1,15,0.02
2013-9-8,60.9,55.7,43.4,58.0,51.2,39.0,100,86,57,30.07,29.73,22,2,22,0.43
2013-9-9,66.7,52.7,41.5,53.0,44.2,38.0,99,75,46,30.22,30.06,13,2,14,0.00
2013-9-10,66.7,58.6,52.6,60.0,56.8,53.0,100,95,77,30.17,30.10,14,2,14,0.00
2013-9-11,81.9,67.2,57.6,72.0,64.7,57.0,100,93,71,30.12,29.94,9,2,9,0.01
2013-9-12,78.0,67.2,63.3,72.0,66.0,63.0,100,97,82,30.05,29.53,13,2,13,0.08
2013-9-13,64.7,62.6,57.0,64.0,62.2,57.0,100,100,100,29.74,29.64,17,1,17,1.52
2013-9-14,70.5,60.1,52.7,61.0,56.8,52.0,100,90,67,30.04,29.71,14,2,14,0.01
2013-9-15,68.2,56.9,48.0,54.0,50.7,47.0,100,83,54,30.16,30.04,10,1,10,0.00
2013-9-16,61.4,52.7,40.4,56.0,49.8,35.0,100,90,75,30.26,30.00,17,2,17,0.00
2013-9-17,63.2,50.0,38.5,47.0,40.5,35.0,91,71,48,30.40,30.25,16,2,16,0.00
2013-9-18,72.8,57.7,46.3,51.0,46.5,41.0,93,70,39,30.32,30.12,8,1,8,0.00
2013-9-19,77.9,62.1,51.0,54.0,50.2,46.0,87,68,42,30.15,30.05,9,2,9,0.00
2013-9-20,77.0,63.1,52.3,56.0,52.1,48.0,100,70,47,30.15,30.07,10,2,10,0.00
2013-9-21,66.8,57.7,52.1,59.0,56.2,52.0,100,96,74,30.11,29.87,15,4,16,0.00
2013-9-22,63.5,60.3,52.1,63.0,59.7,50.0,100,99,91,29.87,29.66,22,2,22,0.73
2013-9-23,55.0,49.0,42.9,50.0,43.0,41.0,95,81,65,29.92,29.74,22,4,22,0.00
2013-9-24,49.6,47.1,43.4,46.0,42.8,40.0,97,86,79,29.91,29.83,19,3,19,0.03
2013-9-25,59.9,50.9,46.2,48.0,46.3,44.0,98,85,65,29.99,29.85,22,3,22,0.00
2013-9-26,60.7,53.4,46.9,50.0,48.4,45.0,98,84,67,30.15,29.98,22,3,22,0.00
2013-9-27,71.8,59.4,50.9,54.0,51.4,50.0,97,77,50,30.29,30.15,22,2,22,0.00
2013-9-28,74.8,59.5,50.0,55.0,50.9,45.0,98,77,40,30.38,30.28,9,1,9,0.00
2013-9-29,69.8,57.1,46.9,50.0,47.3,44.0,100,74,42,30.31,30.17,12,1,12,0.00
2013-9-30,68.2,54.5,42.9,52.0,48.5,43.0,100,83,52,30.19,30.01,10,1,10,0.00
2013-10-1,73.8,59.7,51.1,54.0,50.3,45.0,100,75,39,30.01,29.85,15,2,15,0.00
2013-10-2,78.7,63.9,52.9,60.0,54.8,48.0,100,75,48,29.91,29.76,11,1,12,0.00
2013-10-3,73.0,61.7,51.6,50.0,45.3,39.0,78,57,40,30.10,29.91,15,1,15,0.00
2013-10-4,70.0,58.2,50.9,49.0,44.1,39.0,75,60,41,30.14,30.05,14,2,15,0.00
2013-10-5,65.1,53.4,44.7,48.0,42.6,38.0,94,69,43,30.20,30.12,9,1,11,0.00
2013-10-6,61.9,49.5,39.2,45.0,38.7,35.0,99,68,40,30.34,30.20,22,3,22,0.10
2013-10-7,62.5,55.1,44.6,62.0,54.9,45.0,100,100,99,30.29,29.85,32,8,32,0.24
2013-10-8,64.4,53.5,44.1,64.0,45.8,37.0,100,77,51,30.42,29.85,21,3,21,0.02
2013-10-9,63.9,49.7,41.3,43.0,39.8,37.0,92,71,41,30.52,30.39,15,2,17,0.00
2013-10-10,67.8,51.2,41.3,48.0,43.8,38.0,100,79,35,30.40,30.22,10,1,10,0.00
2013-10-11,75.0,58.9,46.9,54.0,49.7,45.0,100,75,40,30.26,30.17,10,1,10,0.00
2013-10-12,59.8,51.2,44.8,51.0,46.8,42.0,99,86,61,30.47,30.26,11,2,14,0.00
2013-10-13,60.1,48.3,41.7,47.0,42.6,39.0,100,83,55,30.51,30.41,10,2,11,0.00
2013-10-14,63.2,50.1,39.8,49.0,45.1,39.0,100,85,60,30.42,30.29,12,2,12,0.01
2013-10-15,67.0,55.7,48.1,54.0,50.3,48.0,100,85,56,30.33,30.26,9,2,9,0.00
2013-10-16,55.8,52.6,50.2,54.0,52.0,50.0,100,98,87,30.28,29.93,16,2,16,0.04
2013-10-17,65.5,54.4,50.7,58.0,53.5,50.0,100,98,77,29.95,29.80,15,1,15,0.01
2013-10-18,61.7,53.7,48.8,59.0,50.9,43.0,100,91,72,29.85,29.63,20,2,20,0.24
2013-10-19,63.9,51.1,41.2,49.0,43.4,39.0,97,77,47,29.96,29.83,13,2,13,0.00
2013-10-20,61.3,51.9,40.6,54.0,42.8,31.0,100,75,35,29.95,29.72,16,2,16,0.01
2013-10-21,61.0,48.0,37.7,46.0,37.3,32.0,98,69,40,30.09,29.95,11,2,12,0.00
2013-10-22,57.7,51.2,42.6,54.0,49.8,42.0,100,95,84,30.05,29.74,21,2,21,0.12
2013-10-23,54.2,44.7,36.9,42.0,37.2,32.0,100,77,46,29.80,29.61,9,1,9,0.01
2013-10-24,49.4,41.6,32.8,38.0,31.1,26.0,94,66,43,29.79,29.61,14,1,16,0.00
2013-10-25,50.6,40.1,32.3,36.0,30.7,26.0,96,70,47,30.08,29.80,22,2,22,0.00
2013-10-26,48.8,38.6,28.2,38.0,32.1,26.0,93,78,48,30.12,29.90,22,2,22,0.00
2013-10-27,55.2,43.6,36.6,45.0,38.5,29.0,100,83,57,29.98,29.80,16,2,16,0.08
2013-10-28,51.4,39.0,30.9,38.0,31.0,26.0,91,73,53,30.33,29.97,19,2,24,0.00
2013-10-29,46.7,35.3,27.9,29.0,23.8,16.0,88,65,33,30.46,30.33,11,2,11,0.00
2013-10-30,47.5,36.0,28.3,32.0,25.9,21.0,92,68,36,30.36,30.17,11,1,11,0.00
2013-10-31,56.9,43.3,30.9,57.0,39.2,24.0,100,85,69,30.28,29.83,31,4,31,0.39
2013-11-1,62.5,58.1,53.0,62.0,57.1,51.0,100,97,89,29.84,29.11,38,3,38,0.19
2013-11-2,63.7,52.9,43.4,51.0,45.4,39.0,95,78,51,29.79,29.57,8,0,8,0.01
2013-11-3,43.4,34.6,28.3,39.0,23.7,18.0,98,64,40,30.39,29.77,5,0,5,0.07
2013-11-4,39.2,30.5,25.6,23.0,18.6,18.0,80,61,43,30.71,30.39,10,0,10,0.00
2013-11-5,43.9,35.6,26.9,35.0,27.7,21.0,93,72,51,30.73,30.52,9,1,9,0.00
2013-11-6,50.5,44.6,35.8,48.0,41.8,35.0,97,90,77,30.52,30.02,21,4,21,0.00
2013-11-7,56.7,49.5,36.6,56.0,48.0,32.0,100,95,84,30.03,29.67,24,5,24,0.20
2013-11-8,42.0,35.7,30.4,33.0,27.3,24.0,85,70,55,29.92,29.74,17,2,17,0.00
2013-11-9,40.1,34.2,27.6,26.0,22.8,18.0,77,61,44,30.13,29.92,16,3,16,0.00
2013-11-10,43.2,35.9,30.8,43.0,33.6,21.0,100,91,65,30.10,29.71,10,1,10,0.28
2013-11-11,44.2,37.0,33.7,36.0,32.4,28.0,100,83,59,29.99,29.72,17,3,17,0.01
2013-11-12,41.4,31.1,23.9,36.0,21.8,16.0,84,67,58,30.05,29.83,0,0,0,0.00
2013-11-13,32.3,25.5,21.0,18.0,14.7,11.0,73,61,44,30.17,30.04,0,0,0,0.00
2013-11-14,45.8,34.5,22.7,31.0,25.1,16.0,83,68,49,30.10,29.97,0,0,0,0.00
2013-11-15,50.8,40.5,32.6,38.0,31.5,26.0,96,71,43,30.21,30.09,0,0,0,0.00
2013-11-16,48.9,41.9,36.8,40.0,33.7,28.0,99,73,53,30.37,30.21,4,0,4,0.00
2013-11-17,48.5,43.4,36.7,48.0,42.2,37.0,100,96,83,30.41,30.04,0,0,0,0.03
2013-11-18,57.5,51.3,43.0,57.0,50.2,40.0,100,97,86,30.05,29.52,4,0,4,0.70
2013-11-19,43.3,35.4,30.8,40.0,24.4,18.0,90,63,47,30.13,29.58,0,0,0,0.01
2013-11-20,35.4,29.8,25.2,18.0,12.0,8.0,62,45,30,30.61,30.11,2,0,2,0.00
2013-11-21,49.4,34.3,21.7,29.0,19.0,14.0,77,55,24,30.61,30.35,0,0,0,0.00
2013-11-22,39.5,34.6,30.9,29.0,24.0,16.0,88,65,41,30.35,29.77,0,0,0,0.00
2013-11-23,37.4,32.0,24.1,36.0,23.2,16.0,100,71,42,29.78,29.62,0,0,0,0.04
2013-11-24,24.5,19.6,16.3,18.0,8.7,4.0,74,57,46,29.88,29.59,0,0,0,0.02
2013-11-25,25.7,18.7,12.9,11.0,4.1,0.0,61,49,33,30.29,29.88,0,0,0,0.00
2013-11-26,32.4,29.0,23.8,32.0,25.1,11.0,100,85,53,30.32,30.21,0,0,0,0.03
2013-11-27,54.4,47.7,32.5,54.0,47.7,32.0,100,100,100,30.22,29.17,0,0,1,3.02
2013-11-28,37.7,27.3,16.6,38.0,21.7,11.0,100,78,54,30.34,29.26,0,0,0,0.01
2013-11-29,23.1,17.5,13.6,14.0,10.1,8.0,85,69,51,30.70,30.33,2,0,3,0.00
2013-11-30,27.5,19.8,10.5,24.0,13.6,8.0,94,75,45,30.79,30.44,8,1,10,0.00
2013-12-1,36.8,33.1,27.5,37.0,33.2,24.0,100,99,86,30.45,30.13,13,2,13,0.22
2013-12-2,40.6,36.4,32.5,41.0,36.5,33.0,100,100,100,30.13,29.96,17,3,17,0.32
2013-12-3,38.0,35.7,31.9,38.0,35.7,32.0,100,100,100,29.96,29.83,22,3,22,0.02
2013-12-4,40.5,33.1,27.7,32.0,29.2,26.0,100,85,67,30.22,29.83,18,5,18,0.00
2013-12-5,47.4,35.2,25.7,47.0,34.6,24.0,100,97,92,30.31,29.96,18,3,18,0.03
2013-12-6,49.1,41.3,33.4,49.0,40.8,31.0,100,98,87,30.11,29.88,13,2,13,0.19
2013-12-7,34.2,29.4,21.1,31.0,18.7,11.0,96,63,45,30.36,30.06,19,4,20,0.00
2013-12-8,23.1,19.9,16.2,11.0,9.7,8.0,73,60,48,30.59,30.04,20,3,21,0.00
2013-12-9,31.8,21.7,17.6,32.0,16.8,8.0,100,80,50,30.57,29.83,15,3,16,0.00
2013-12-10,31.3,25.6,16.9,31.0,24.5,14.0,100,94,75,29.87,29.73,18,2,18,0.00
2013-12-11,27.5,18.4,9.5,18.0,14.3,8.0,93,82,61,30.09,29.86,13,1,13,0.01
2013-12-12,15.1,9.6,2.9,11.0,0.9,-6.0,83,64,44,30.21,29.97,18,3,18,0.00
2013-12-13,22.0,11.4,0.4,11.0,2.6,-13.0,88,64,41,30.35,29.86,23,3,23,0.00
2013-12-14,10.3,2.7,-4.6,0.0,-6.0,-13.0,70,59,44,30.61,30.35,19,3,20,0.00
2013-12-15,17.3,11.0,4.7,18.0,10.7,0.0,95,91,59,30.44,29.35,25,5,25,0.00
2013-12-16,19.8,11.7,-0.2,16.0,7.0,-6.0,96,76,54,30.19,29.63,14,3,20,0.01
2013-12-17,14.0,5.4,-5.2,11.0,0.0,-6.0,93,72,57,30.30,30.05,15,2,17,0.00
2013-12-18,19.0,15.7,12.9,18.0,15.7,11.0,96,95,93,30.05,29.80,18,3,18,0.00
2013-12-19,30.3,23.7,13.1,29.0,23.6,14.0,99,96,92,30.10,29.93,6,0,6,0.01
2013-12-20,33.6,30.1,25.8,35.0,29.5,26.0,100,97,87,30.17,29.94,10,2,10,0.01
2013-12-21,33.5,29.2,24.7,35.0,29.6,26.0,100,100,100,30.00,29.85,12,2,12,0.00
2013-12-22,31.0,28.8,27.1,31.0,29.2,28.0,100,100,100,30.10,29.47,14,1,15,0.00
2013-12-23,32.4,31.4,27.4,32.0,31.4,28.0,100,100,100,30.10,30.00,0,0,0,0.00
2013-12-24,29.3,19.3,8.9,29.0,20.0,11.0,100,96,93,30.14,29.56,0,0,0,0.00
2013-12-25,16.2,11.4,7.4,14.0,11.2,8.0,96,93,87,30.55,29.88,0,0,0,0.00
2013-12-26,29.4,18.2,7.8,29.0,18.9,8.0,100,98,94,30.53,30.05,0,0,0,0.00
2013-12-27,29.9,20.7,15.2,28.0,21.0,16.0,100,97,91,30.19,30.07,0,0,0,0.00
2013-12-28,33.3,26.0,16.6,33.0,26.4,18.0,100,99,97,30.17,29.93,0,0,0,0.00
2013-12-29,33.9,31.6,26.1,35.0,31.8,26.0,100,100,100,30.07,29.54,0,0,0,0.36
2013-12-30,27.6,16.0,0.6,28.0,15.5,0.0,100,95,87,30.16,29.49,0,0,0,0.00
2013-12-31,11.5,2.3,-3.2,8.0,1.4,-6.0,92,87,77,30.18,30.03,0,0,0,0.00
2014-1-1,17.7,6.0,-2.6,14.0,4.4,-6.0,95,87,79,30.42,30.09,0,0,0,0.00
2014-1-2,-2.8,-8.1,-11.1,-6.0,-7.3,-13.0,87,85,82,30.49,30.00,0,0,0,0.00